AAL1357 KMIA-KJFK

Flight info

Callsign AAL1357
Flight time 2h 14m
Altitude 33000
Route FOLZZ3 ALYRA PELCN Y309 FLRDA SAGGY CHIEZ Q161 KALDA Q108 SIE CAMRN5
Aircraft A321/M-SDE3FGHIRWY/LB1

Departure

Time 2026-05-03 22:29
Airport Miami International Airport (KMIA)

Arrival

Time 2026-05-04 00:43
Airport John F. Kennedy International Airport (KJFK)
Time Latitude Longitude Altitude Speed Heading
2026-05-03 21:42 25.79557 -80.28118 15 ft 0 kts 211°
2026-05-03 22:17 25.79571 -80.28109 18 ft 4 kts 201°
2026-05-03 22:18 25.79597 -80.28103 18 ft 4 kts 180°
2026-05-03 22:18 25.79617 -80.28104 15 ft 4 kts 237°
2026-05-03 22:18 25.79623 -80.28128 15 ft 3 kts 288°
2026-05-03 22:18 25.79623 -80.28130 15 ft 0 kts 287°
2026-05-03 22:20 25.79624 -80.28132 15 ft 1 kts 287°
2026-05-03 22:21 25.79628 -80.28147 16 ft 3 kts 286°
2026-05-03 22:21 25.79635 -80.28174 16 ft 4 kts 287°
2026-05-03 22:21 25.79646 -80.28209 15 ft 6 kts 292°
2026-05-03 22:21 25.79665 -80.28253 15 ft 7 kts 295°
2026-05-03 22:22 25.79675 -80.28311 15 ft 9 kts 272°
2026-05-03 22:22 25.79672 -80.28379 15 ft 9 kts 266°
2026-05-03 22:22 25.79668 -80.28452 15 ft 10 kts 267°
2026-05-03 22:22 25.79661 -80.28527 16 ft 10 kts 260°
2026-05-03 22:23 25.79651 -80.28605 15 ft 10 kts 265°
2026-05-03 22:23 25.79645 -80.28685 15 ft 11 kts 265°
2026-05-03 22:23 25.79642 -80.28767 15 ft 11 kts 278°
2026-05-03 22:23 25.79699 -80.28814 15 ft 11 kts 352°
2026-05-03 22:24 25.79779 -80.28819 15 ft 12 kts 358°
2026-05-03 22:24 25.79860 -80.28823 15 ft 12 kts 357°
2026-05-03 22:24 25.79940 -80.28827 15 ft 11 kts 358°
2026-05-03 22:24 25.80004 -80.28857 16 ft 10 kts 300°
2026-05-03 22:25 25.80010 -80.28934 16 ft 10 kts 269°
2026-05-03 22:25 25.80007 -80.29020 17 ft 12 kts 266°
2026-05-03 22:25 25.80003 -80.29118 16 ft 13 kts 268°
2026-05-03 22:25 25.79999 -80.29217 16 ft 13 kts 267°
2026-05-03 22:26 25.79995 -80.29321 16 ft 14 kts 268°
2026-05-03 22:26 25.79990 -80.29432 14 ft 15 kts 267°
2026-05-03 22:26 25.79986 -80.29546 14 ft 15 kts 267°
2026-05-03 22:26 25.79981 -80.29656 14 ft 14 kts 267°
2026-05-03 22:27 25.79976 -80.29770 14 ft 15 kts 267°
2026-05-03 22:27 25.79971 -80.29884 14 ft 15 kts 267°
2026-05-03 22:27 25.79982 -80.29997 15 ft 15 kts 286°
2026-05-03 22:27 25.80010 -80.30101 15 ft 13 kts 294°
2026-05-03 22:28 25.80071 -80.30102 14 ft 8 kts 63°
2026-05-03 22:28 25.80076 -80.30040 13 ft 8 kts 88°
2026-05-03 22:28 25.80078 -80.29981 13 ft 8 kts 88°
2026-05-03 22:28 25.80086 -80.29785 14 ft 55 kts 87°
2026-05-03 22:29 25.80114 -80.29123 17 ft 115 kts 87°
2026-05-03 22:29 25.80156 -80.28051 18 ft 162 kts 87°
2026-05-03 22:29 25.80210 -80.26816 640 ft 154 kts 85°
2026-05-03 22:29 25.80145 -80.25633 1181 ft 157 kts 107°
2026-05-03 22:30 25.79708 -80.24519 1730 ft 160 kts 115°
2026-05-03 22:30 25.79196 -80.23357 2008 ft 177 kts 116°
2026-05-03 22:30 25.78613 -80.22050 2176 ft 200 kts 116°
2026-05-03 22:30 25.77970 -80.20612 2348 ft 221 kts 116°
2026-05-03 22:31 25.77240 -80.18986 2465 ft 246 kts 117°
2026-05-03 22:31 25.76442 -80.17243 2794 ft 263 kts 118°
2026-05-03 22:31 25.75562 -80.15427 3360 ft 271 kts 120°
2026-05-03 22:31 25.74659 -80.13594 3949 ft 277 kts 118°
2026-05-03 22:32 25.74187 -80.11493 4534 ft 284 kts 86°
2026-05-03 22:32 25.74780 -80.09422 5095 ft 287 kts 53°
2026-05-03 22:32 25.76063 -80.07708 5694 ft 291 kts 47°
2026-05-03 22:32 25.77414 -80.06016 6304 ft 294 kts 47°
2026-05-03 22:33 25.78780 -80.04308 6899 ft 298 kts 47°
2026-05-03 22:33 25.80162 -80.02574 7499 ft 301 kts 47°
2026-05-03 22:33 25.81554 -80.00819 8098 ft 304 kts 47°
2026-05-03 22:33 25.82955 -79.99043 8707 ft 307 kts 47°
2026-05-03 22:34 25.84370 -79.97248 9290 ft 311 kts 47°
2026-05-03 22:34 25.85778 -79.95457 9872 ft 314 kts 47°
2026-05-03 22:34 25.87227 -79.93614 10262 ft 324 kts 47°
2026-05-03 22:34 25.88794 -79.91622 10375 ft 344 kts 47°
2026-05-03 22:35 25.90373 -79.89613 10508 ft 363 kts 47°
2026-05-03 22:35 25.92074 -79.87448 10663 ft 379 kts 47°
2026-05-03 22:35 25.93824 -79.85219 11073 ft 386 kts 47°
2026-05-03 22:35 25.95598 -79.82958 11577 ft 390 kts 47°
2026-05-03 22:36 25.97386 -79.80674 12077 ft 394 kts 47°
2026-05-03 22:36 25.99191 -79.78369 12595 ft 397 kts 47°
2026-05-03 22:36 26.01016 -79.76045 13075 ft 401 kts 47°
2026-05-03 22:36 26.02834 -79.73728 13590 ft 405 kts 47°
2026-05-03 22:37 26.04690 -79.71358 14051 ft 408 kts 47°
2026-05-03 22:37 26.06559 -79.68967 14498 ft 411 kts 47°
2026-05-03 22:37 26.08446 -79.66550 14943 ft 415 kts 47°
2026-05-03 22:37 26.10341 -79.64111 15391 ft 418 kts 49°
2026-05-03 22:38 26.12068 -79.61484 15821 ft 423 kts 53°
2026-05-03 22:38 26.13764 -79.58807 15983 ft 424 kts 53°
2026-05-03 22:38 26.15474 -79.56114 16398 ft 427 kts 53°
2026-05-03 22:38 26.17189 -79.53409 16864 ft 430 kts 53°
2026-05-03 22:39 26.18921 -79.50676 17326 ft 434 kts 53°
2026-05-03 22:39 26.20672 -79.47917 17737 ft 438 kts 53°
2026-05-03 22:39 26.22414 -79.45171 18159 ft 442 kts 53°
2026-05-03 22:39 26.24193 -79.42365 18538 ft 445 kts 53°
2026-05-03 22:40 26.25980 -79.39542 18923 ft 448 kts 53°
2026-05-03 22:40 26.27855 -79.36753 19291 ft 450 kts 47°
2026-05-03 22:40 26.30081 -79.34300 19659 ft 450 kts 37°
2026-05-03 22:40 26.32623 -79.32269 20017 ft 450 kts 28°
2026-05-03 22:41 26.35273 -79.30394 20384 ft 453 kts 29°
2026-05-03 22:41 26.37939 -79.28498 20742 ft 456 kts 29°
2026-05-03 22:41 26.40621 -79.26588 21081 ft 459 kts 29°
2026-05-03 22:41 26.43320 -79.24663 21415 ft 462 kts 29°
2026-05-03 22:42 26.46035 -79.22724 21748 ft 465 kts 29°
2026-05-03 22:42 26.48731 -79.20799 22070 ft 468 kts 28°
2026-05-03 22:42 26.51483 -79.18833 22384 ft 471 kts 28°
2026-05-03 22:42 26.54244 -79.16860 22695 ft 474 kts 28°
2026-05-03 22:43 26.57035 -79.14865 23003 ft 477 kts 28°
2026-05-03 22:43 26.59832 -79.12868 23296 ft 479 kts 28°
2026-05-03 22:43 26.62653 -79.10851 23612 ft 482 kts 28°
2026-05-03 22:43 26.65479 -79.08826 23862 ft 485 kts 28°
2026-05-03 22:44 26.68329 -79.06781 24131 ft 487 kts 28°
2026-05-03 22:44 26.71185 -79.04731 24378 ft 489 kts 28°
2026-05-03 22:44 26.74022 -79.02693 24537 ft 494 kts 28°
2026-05-03 22:44 26.76922 -79.00609 24793 ft 497 kts 29°
2026-05-03 22:45 26.79839 -78.98513 25070 ft 499 kts 29°
2026-05-03 22:45 26.82762 -78.96414 25342 ft 500 kts 28°
2026-05-03 22:45 26.85697 -78.94309 25603 ft 502 kts 28°
2026-05-03 22:45 26.88649 -78.92187 25887 ft 504 kts 28°
2026-05-03 22:46 26.91607 -78.90057 26148 ft 506 kts 28°
2026-05-03 22:46 26.94570 -78.87923 26399 ft 508 kts 28°
2026-05-03 22:46 26.97548 -78.85777 26642 ft 509 kts 28°
2026-05-03 22:46 27.00532 -78.83625 26884 ft 511 kts 28°
2026-05-03 22:47 27.03526 -78.81465 27155 ft 513 kts 28°
2026-05-03 22:47 27.06540 -78.79289 27276 ft 518 kts 28°
2026-05-03 22:47 27.09541 -78.77121 27413 ft 522 kts 28°
2026-05-03 22:47 27.12610 -78.74901 27604 ft 525 kts 28°
2026-05-03 22:48 27.15691 -78.72670 27843 ft 528 kts 28°
2026-05-03 22:48 27.18774 -78.70433 28076 ft 530 kts 28°
2026-05-03 22:48 27.21876 -78.68181 28313 ft 531 kts 28°
2026-05-03 22:48 27.24988 -78.65987 28811 ft 523 kts 25°
2026-05-03 22:49 27.28241 -78.64255 29302 ft 512 kts 15°
2026-05-03 22:49 27.31611 -78.63088 29671 ft 504 kts
2026-05-03 22:49 27.35043 -78.62473 30008 ft 496 kts
2026-05-03 22:49 27.38471 -78.62051 30305 ft 496 kts
2026-05-03 22:50 27.41849 -78.61625 30549 ft 496 kts
2026-05-03 22:50 27.45279 -78.61182 30802 ft 496 kts
2026-05-03 22:50 27.48709 -78.60734 31047 ft 496 kts
2026-05-03 22:50 27.52140 -78.60285 31293 ft 496 kts
2026-05-03 22:51 27.55565 -78.59832 31532 ft 496 kts
2026-05-03 22:51 27.58994 -78.59377 31779 ft 496 kts 360°
2026-05-03 22:51 27.62431 -78.58927 31982 ft 499 kts 358°
2026-05-03 22:51 27.65899 -78.58478 32133 ft 502 kts 358°
2026-05-03 22:52 27.69370 -78.58029 32356 ft 503 kts 358°
2026-05-03 22:52 27.72840 -78.57580 32592 ft 503 kts 358°
2026-05-03 22:52 27.76272 -78.57135 32829 ft 503 kts 358°
2026-05-03 22:52 27.79748 -78.56684 33013 ft 503 kts 358°
2026-05-03 22:53 27.83221 -78.56231 33055 ft 501 kts 358°
2026-05-03 22:53 27.90127 -78.55322 33092 ft 500 kts 357°
2026-05-03 22:54 27.97054 -78.54400 33061 ft 502 kts 357°
2026-05-03 22:54 28.03993 -78.53482 33060 ft 502 kts 357°
2026-05-03 22:55 28.10923 -78.52579 33065 ft 501 kts 357°
2026-05-03 22:55 28.17812 -78.51677 33069 ft 502 kts 357°
2026-05-03 22:56 28.24744 -78.50763 33101 ft 502 kts 357°
2026-05-03 22:56 28.31688 -78.49845 33094 ft 502 kts 357°
2026-05-03 22:57 28.38628 -78.48930 33092 ft 502 kts 357°
2026-05-03 22:57 28.45568 -78.48014 33092 ft 502 kts 357°
2026-05-03 22:58 28.52439 -78.47106 33082 ft 500 kts 356°
2026-05-03 22:58 28.59349 -78.46184 33087 ft 500 kts 356°
2026-05-03 22:59 28.66271 -78.45266 33093 ft 501 kts 356°
2026-05-03 22:59 28.73190 -78.44356 33083 ft 501 kts 356°
2026-05-03 23:00 28.80112 -78.43440 33125 ft 501 kts 356°
2026-05-03 23:00 28.87033 -78.42517 33117 ft 501 kts 356°
2026-05-03 23:01 28.93906 -78.41605 33112 ft 501 kts 356°
2026-05-03 23:01 29.00825 -78.40688 33120 ft 500 kts 356°
2026-05-03 23:02 29.07736 -78.39765 33089 ft 498 kts 356°
2026-05-03 23:02 29.14560 -78.38843 33086 ft 497 kts 356°
2026-05-03 23:03 29.21427 -78.37925 33094 ft 498 kts 356°
2026-05-03 23:03 29.28307 -78.37003 33098 ft 498 kts 356°
2026-05-03 23:04 29.35199 -78.36076 33146 ft 499 kts 356°
2026-05-03 23:04 29.42088 -78.35134 33138 ft 498 kts 356°
2026-05-03 23:05 29.48907 -78.34348 33126 ft 488 kts 349°
2026-05-03 23:05 29.55584 -78.34766 33131 ft 479 kts 345°
2026-05-03 23:06 29.62245 -78.35270 33126 ft 479 kts 345°
2026-05-03 23:06 29.68866 -78.35757 33105 ft 476 kts 345°
2026-05-03 23:07 29.75481 -78.36241 33109 ft 477 kts 345°
2026-05-03 23:07 29.82067 -78.36736 33116 ft 477 kts 345°
2026-05-03 23:08 29.88700 -78.37224 33171 ft 478 kts 345°
2026-05-03 23:08 29.95341 -78.37720 33154 ft 479 kts 345°
2026-05-03 23:09 30.00869 -78.38130 33149 ft 479 kts 345°
2026-05-03 23:09 30.07530 -78.38618 33144 ft 479 kts 345°
2026-05-03 23:10 30.15325 -78.38812 33142 ft 494 kts 357°
2026-05-03 23:10 30.21054 -78.37960 33140 ft 496 kts 357°
2026-05-03 23:11 30.27902 -78.36922 33142 ft 496 kts 357°
2026-05-03 23:11 30.34711 -78.35899 33141 ft 497 kts 357°
2026-05-03 23:12 30.41566 -78.34871 33150 ft 497 kts 358°
2026-05-03 23:12 30.48445 -78.33527 33126 ft 504 kts
2026-05-03 23:13 30.55329 -78.31812 33126 ft 507 kts
2026-05-03 23:13 30.62188 -78.30071 33129 ft 508 kts
2026-05-03 23:14 30.69107 -78.28427 33139 ft 507 kts
2026-05-03 23:14 30.76008 -78.26847 33141 ft 503 kts
2026-05-03 23:15 30.82861 -78.25253 33141 ft 502 kts
2026-05-03 23:15 30.89666 -78.23657 33144 ft 502 kts
2026-05-03 23:16 30.96522 -78.22047 33149 ft 502 kts
2026-05-03 23:16 31.03377 -78.20518 33181 ft 501 kts
2026-05-03 23:17 31.10236 -78.19026 33173 ft 501 kts
2026-05-03 23:17 31.17074 -78.17515 33169 ft 501 kts
2026-05-03 23:18 31.23915 -78.15991 33167 ft 501 kts
2026-05-03 23:18 31.30708 -78.14463 33185 ft 501 kts
2026-05-03 23:19 31.37555 -78.12936 33182 ft 501 kts
2026-05-03 23:19 31.44395 -78.11429 33171 ft 500 kts
2026-05-03 23:20 31.51249 -78.10178 33171 ft 497 kts 358°
2026-05-03 23:20 31.58026 -78.09112 33144 ft 493 kts 358°
2026-05-03 23:21 31.64842 -78.08019 33147 ft 495 kts 359°
2026-05-03 23:21 31.71666 -78.06857 33154 ft 496 kts 359°
2026-05-03 23:22 31.81920 -78.05061 33194 ft 497 kts 359°
2026-05-03 23:22 31.88707 -78.03889 33186 ft 497 kts 359°
2026-05-03 23:23 31.95553 -78.02716 33272 ft 498 kts 359°
2026-05-03 23:23 31.98987 -78.02126 33528 ft 499 kts 359°
2026-05-03 23:23 32.02413 -78.01536 33791 ft 499 kts 359°
2026-05-03 23:24 32.05850 -78.00942 34105 ft 499 kts 359°
2026-05-03 23:24 32.09287 -78.00347 34292 ft 500 kts 359°
2026-05-03 23:24 32.12685 -77.99762 34464 ft 501 kts 359°
2026-05-03 23:24 32.16086 -77.99173 34640 ft 502 kts 359°
2026-05-03 23:25 32.19541 -77.98573 34817 ft 503 kts 358°
2026-05-03 23:25 32.23008 -77.97971 34991 ft 504 kts 358°
2026-05-03 23:25 32.26478 -77.97368 35170 ft 504 kts 358°
2026-05-03 23:25 32.29959 -77.96762 35344 ft 505 kts 358°
2026-05-03 23:26 32.33441 -77.96155 35571 ft 506 kts 358°
2026-05-03 23:26 32.36922 -77.95551 35727 ft 507 kts 357°
2026-05-03 23:26 32.40411 -77.94944 35879 ft 508 kts 357°
2026-05-03 23:26 32.43869 -77.94341 36039 ft 509 kts 357°
2026-05-03 23:27 32.47375 -77.93733 36209 ft 510 kts 357°
2026-05-03 23:27 32.50888 -77.93124 36369 ft 511 kts 357°
2026-05-03 23:27 32.54410 -77.92511 36530 ft 511 kts 356°
2026-05-03 23:27 32.57929 -77.91895 36726 ft 512 kts 356°
2026-05-03 23:28 32.61451 -77.91276 36913 ft 511 kts 356°
2026-05-03 23:28 32.64970 -77.90654 37096 ft 511 kts 356°
2026-05-03 23:28 32.72024 -77.89418 37153 ft 512 kts 356°
2026-05-03 23:29 32.79082 -77.88190 37161 ft 512 kts 356°
2026-05-03 23:29 32.86085 -77.86961 37167 ft 512 kts 356°
2026-05-03 23:30 32.93139 -77.85715 37166 ft 513 kts 356°
2026-05-03 23:30 33.00194 -77.84459 37168 ft 513 kts 356°
2026-05-03 23:31 33.07257 -77.83210 37171 ft 513 kts 356°
2026-05-03 23:31 33.14306 -77.81971 37149 ft 509 kts 356°
2026-05-03 23:32 33.21258 -77.80740 37153 ft 508 kts 356°
2026-05-03 23:32 33.28261 -77.79497 37160 ft 509 kts 356°
2026-05-03 23:33 33.35269 -77.78247 37211 ft 509 kts 356°
2026-05-03 23:33 33.42239 -77.76998 37148 ft 504 kts 356°
2026-05-03 23:34 33.49132 -77.75777 37154 ft 504 kts 356°
2026-05-03 23:34 33.56071 -77.74542 37158 ft 504 kts 356°
2026-05-03 23:35 33.63007 -77.73301 37148 ft 503 kts 356°
2026-05-03 23:35 33.69902 -77.72039 37129 ft 501 kts 357°
2026-05-03 23:36 33.76747 -77.70618 37141 ft 504 kts 359°
2026-05-03 23:36 33.83646 -77.69046 37139 ft 505 kts 359°
2026-05-03 23:37 33.90539 -77.67490 37123 ft 501 kts 359°
2026-05-03 23:37 33.97397 -77.65996 37131 ft 500 kts 358°
2026-05-03 23:38 34.04251 -77.64516 37127 ft 501 kts 358°
2026-05-03 23:38 34.11064 -77.63027 37185 ft 502 kts 359°
2026-05-03 23:39 34.17894 -77.61517 37114 ft 496 kts 359°
2026-05-03 23:39 34.24686 -77.60018 37115 ft 497 kts 358°
2026-05-03 23:40 34.31494 -77.58526 37095 ft 498 kts 358°
2026-05-03 23:40 34.38263 -77.57035 37130 ft 498 kts 359°
2026-05-03 23:41 34.45058 -77.55536 37125 ft 496 kts 358°
2026-05-03 23:41 34.51845 -77.53760 37111 ft 509 kts
2026-05-03 23:42 34.55157 -77.52077 37115 ft 522 kts 17°
2026-05-03 23:42 34.58406 -77.50123 37124 ft 522 kts 17°
2026-05-03 23:42 34.64865 -77.46236 37116 ft 520 kts 17°
2026-05-03 23:43 34.71345 -77.42344 37117 ft 519 kts 17°
2026-05-03 23:43 34.77827 -77.38455 37114 ft 519 kts 17°
2026-05-03 23:44 34.84306 -77.34568 37186 ft 520 kts 17°
2026-05-03 23:44 34.87539 -77.32618 37083 ft 516 kts 17°
2026-05-03 23:44 34.90745 -77.30680 37084 ft 513 kts 17°
2026-05-03 23:45 34.97096 -77.26853 37094 ft 513 kts 17°
2026-05-03 23:45 35.03509 -77.22981 37100 ft 515 kts 17°
2026-05-03 23:46 35.09927 -77.19095 37130 ft 516 kts 17°
2026-05-03 23:46 35.16351 -77.15184 37136 ft 516 kts 17°
2026-05-03 23:47 35.22742 -77.11302 37127 ft 516 kts 17°
2026-05-03 23:47 35.29172 -77.07389 37126 ft 516 kts 17°
2026-05-03 23:48 35.35601 -77.03469 37131 ft 516 kts 17°
2026-05-03 23:48 35.42020 -76.99542 37129 ft 516 kts 17°
2026-05-03 23:49 35.48406 -76.95631 37127 ft 516 kts 17°
2026-05-03 23:49 35.54829 -76.91694 37172 ft 515 kts 17°
2026-05-03 23:50 35.61190 -76.87791 37086 ft 509 kts 17°
2026-05-03 23:50 35.67536 -76.83942 37065 ft 509 kts 16°
2026-05-03 23:51 35.73862 -76.80109 37078 ft 511 kts 17°
2026-05-03 23:51 35.80242 -76.76220 37123 ft 512 kts 17°
2026-05-03 23:52 35.86622 -76.72314 37133 ft 512 kts 17°
2026-05-03 23:52 35.92997 -76.68377 37137 ft 513 kts 18°
2026-05-03 23:53 35.99257 -76.64199 37141 ft 516 kts 20°
2026-05-03 23:53 36.05479 -76.59871 37097 ft 510 kts 20°
2026-05-03 23:54 36.11678 -76.55616 37102 ft 509 kts 19°
2026-05-03 23:54 36.17902 -76.51423 37105 ft 510 kts 19°
2026-05-03 23:55 36.24103 -76.47247 37130 ft 511 kts 19°
2026-05-03 23:55 36.30345 -76.43012 37110 ft 512 kts 19°
2026-05-03 23:56 36.36590 -76.38750 37110 ft 512 kts 20°
2026-05-03 23:56 36.42832 -76.34486 37110 ft 512 kts 19°
2026-05-03 23:57 36.49027 -76.30258 37076 ft 508 kts 19°
2026-05-03 23:57 36.55196 -76.26028 37077 ft 507 kts 19°
2026-05-03 23:58 36.61376 -76.21793 37099 ft 508 kts 19°
2026-05-03 23:58 36.67569 -76.17536 37145 ft 508 kts 20°
2026-05-03 23:59 36.73694 -76.13316 37075 ft 505 kts 19°
2026-05-03 23:59 36.79850 -76.09073 37067 ft 506 kts 19°
2026-05-04 00:00 36.86019 -76.04812 37069 ft 507 kts 20°
2026-05-04 00:00 36.92193 -76.00534 37091 ft 506 kts 19°
2026-05-04 00:01 36.98331 -75.96276 37100 ft 505 kts 19°
2026-05-04 00:01 37.04429 -75.92038 37120 ft 505 kts 20°
2026-05-04 00:02 37.10698 -75.88311 37156 ft 487 kts
2026-05-04 00:02 37.17167 -75.86061 37105 ft 482 kts
2026-05-04 00:03 37.23631 -75.83836 37106 ft 482 kts
2026-05-04 00:03 37.30054 -75.81595 37106 ft 483 kts
2026-05-04 00:04 37.36516 -75.79341 37080 ft 480 kts
2026-05-04 00:04 37.42936 -75.77109 37075 ft 478 kts
2026-05-04 00:05 37.49312 -75.74889 37074 ft 479 kts
2026-05-04 00:05 37.55741 -75.72642 37084 ft 480 kts
2026-05-04 00:06 37.62183 -75.70382 37091 ft 481 kts
2026-05-04 00:06 37.68624 -75.68119 37095 ft 481 kts
2026-05-04 00:07 37.75028 -75.65861 37100 ft 481 kts
2026-05-04 00:07 37.81470 -75.63570 37096 ft 481 kts
2026-05-04 00:08 37.84619 -75.61979 37093 ft 495 kts 17°
2026-05-04 00:08 37.87601 -75.59704 37094 ft 506 kts 25°
2026-05-04 00:08 37.93401 -75.54650 37093 ft 507 kts 25°
2026-05-04 00:09 37.99213 -75.49564 37137 ft 508 kts 25°
2026-05-04 00:09 38.04957 -75.44531 37045 ft 503 kts 25°
2026-05-04 00:10 38.10781 -75.39635 37044 ft 501 kts 23°
2026-05-04 00:10 38.16691 -75.34911 37055 ft 502 kts 22°
2026-05-04 00:11 38.22636 -75.30249 37097 ft 497 kts 17°
2026-05-04 00:11 38.25705 -75.28495 37095 ft 484 kts
2026-05-04 00:11 38.28898 -75.27333 37092 ft 471 kts 360°
2026-05-04 00:12 38.35303 -75.25948 37091 ft 467 kts 358°
2026-05-04 00:12 38.41711 -75.24619 37140 ft 467 kts 359°
2026-05-04 00:13 38.48066 -75.23287 37052 ft 465 kts 358°
2026-05-04 00:13 38.54464 -75.21941 37049 ft 466 kts 358°
2026-05-04 00:14 38.60871 -75.20595 37054 ft 467 kts 358°
2026-05-04 00:14 38.67283 -75.19164 37077 ft 474 kts
2026-05-04 00:15 38.70441 -75.17755 37072 ft 489 kts 16°
2026-05-04 00:15 38.73435 -75.15573 37067 ft 502 kts 28°
2026-05-04 00:15 38.78981 -75.10125 37060 ft 506 kts 30°
2026-05-04 00:16 38.81779 -75.07371 36886 ft 507 kts 29°
2026-05-04 00:16 38.84581 -75.04623 36316 ft 509 kts 29°
2026-05-04 00:16 38.87409 -75.01861 35530 ft 513 kts 29°
2026-05-04 00:16 38.90259 -74.99079 34785 ft 515 kts 29°
2026-05-04 00:17 38.93100 -74.96293 34193 ft 514 kts 28°
2026-05-04 00:17 38.95948 -74.93494 33308 ft 516 kts 28°
2026-05-04 00:17 38.98785 -74.90691 32569 ft 514 kts 29°
2026-05-04 00:17 39.01575 -74.87922 31731 ft 512 kts 29°
2026-05-04 00:18 39.04391 -74.85126 30798 ft 509 kts 29°
2026-05-04 00:18 39.07164 -74.82365 29335 ft 501 kts 29°
2026-05-04 00:18 39.09891 -74.79643 28494 ft 489 kts 30°
2026-05-04 00:18 39.12503 -74.76947 28011 ft 476 kts 31°
2026-05-04 00:19 39.15026 -74.74255 27411 ft 466 kts 32°
2026-05-04 00:19 39.17472 -74.71585 26837 ft 455 kts 32°
2026-05-04 00:19 39.19859 -74.68958 26267 ft 449 kts 32°
2026-05-04 00:19 39.22203 -74.66388 25722 ft 446 kts 32°
2026-05-04 00:20 39.24565 -74.63809 25165 ft 444 kts 33°
2026-05-04 00:20 39.26922 -74.61250 24582 ft 442 kts 33°
2026-05-04 00:20 39.29269 -74.58709 24028 ft 439 kts 33°
2026-05-04 00:20 39.31604 -74.56181 23453 ft 437 kts 33°
2026-05-04 00:21 39.33923 -74.53669 22876 ft 433 kts 33°
2026-05-04 00:21 39.36219 -74.51176 22344 ft 429 kts 33°
2026-05-04 00:21 39.38393 -74.48810 21871 ft 425 kts 33°
2026-05-04 00:21 39.40613 -74.46391 21364 ft 421 kts 33°
2026-05-04 00:22 39.42844 -74.43959 20894 ft 418 kts 34°
2026-05-04 00:22 39.45056 -74.41537 20396 ft 415 kts 34°
2026-05-04 00:22 39.47256 -74.39126 19922 ft 413 kts 34°
2026-05-04 00:22 39.49437 -74.36732 19455 ft 410 kts 34°
2026-05-04 00:23 39.51586 -74.34373 18989 ft 407 kts 34°
2026-05-04 00:23 39.53741 -74.32012 18496 ft 404 kts 34°
2026-05-04 00:23 39.55878 -74.29670 18070 ft 399 kts 34°
2026-05-04 00:23 39.57961 -74.27379 17905 ft 386 kts 34°
2026-05-04 00:24 39.59951 -74.25188 17738 ft 378 kts 34°
2026-05-04 00:24 39.61946 -74.23001 17349 ft 374 kts 34°
2026-05-04 00:24 39.63925 -74.20828 16988 ft 372 kts 34°
2026-05-04 00:24 39.65887 -74.18669 16628 ft 369 kts 34°
2026-05-04 00:25 39.67839 -74.16522 16265 ft 366 kts 34°
2026-05-04 00:25 39.69775 -74.14392 15903 ft 363 kts 34°
2026-05-04 00:25 39.71688 -74.12283 15552 ft 360 kts 34°
2026-05-04 00:25 39.73597 -74.10179 15190 ft 358 kts 34°
2026-05-04 00:26 39.75484 -74.08096 14850 ft 355 kts 35°
2026-05-04 00:26 39.77334 -74.06050 14523 ft 353 kts 35°
2026-05-04 00:26 39.79192 -74.03995 14173 ft 350 kts 35°
2026-05-04 00:26 39.81035 -74.01950 13832 ft 346 kts 35°
2026-05-04 00:27 39.82852 -73.99936 13467 ft 340 kts 35°
2026-05-04 00:27 39.84738 -73.98120 13140 ft 334 kts 25°
2026-05-04 00:27 39.86771 -73.96681 12820 ft 331 kts 23°
2026-05-04 00:27 39.88789 -73.95266 12496 ft 328 kts 23°
2026-05-04 00:28 39.90784 -73.93859 12167 ft 326 kts 23°
2026-05-04 00:28 39.92771 -73.92448 11856 ft 323 kts 23°
2026-05-04 00:28 39.94709 -73.91073 11540 ft 320 kts 23°
2026-05-04 00:28 39.96633 -73.89703 11306 ft 311 kts 23°
2026-05-04 00:29 39.98522 -73.88360 11144 ft 310 kts 23°
2026-05-04 00:29 40.00423 -73.87011 11039 ft 310 kts 23°
2026-05-04 00:29 40.02312 -73.85685 10910 ft 306 kts 22°
2026-05-04 00:29 40.04163 -73.84423 10772 ft 295 kts 22°
2026-05-04 00:30 40.05940 -73.83175 10576 ft 286 kts 22°
2026-05-04 00:30 40.07653 -73.81962 10318 ft 281 kts 22°
2026-05-04 00:30 40.09377 -73.80732 10037 ft 276 kts 22°
2026-05-04 00:30 40.11018 -73.79556 9762 ft 271 kts 22°
2026-05-04 00:31 40.12669 -73.78371 9457 ft 269 kts 22°
2026-05-04 00:31 40.14308 -73.77197 9160 ft 269 kts 22°
2026-05-04 00:31 40.15951 -73.76020 8866 ft 269 kts 22°
2026-05-04 00:31 40.17590 -73.74845 8572 ft 268 kts 22°
2026-05-04 00:32 40.19227 -73.73671 8278 ft 268 kts 22°
2026-05-04 00:32 40.20859 -73.72496 7991 ft 268 kts 22°
2026-05-04 00:32 40.22488 -73.71323 7695 ft 268 kts 22°
2026-05-04 00:32 40.24092 -73.70171 7457 ft 267 kts 22°
2026-05-04 00:33 40.25719 -73.69003 7196 ft 267 kts 22°
2026-05-04 00:33 40.28982 -73.66676 6688 ft 267 kts 22°
2026-05-04 00:33 40.30616 -73.65514 6438 ft 267 kts 22°
2026-05-04 00:34 40.32245 -73.64353 6181 ft 266 kts 22°
2026-05-04 00:34 40.33859 -73.63190 5915 ft 263 kts 22°
2026-05-04 00:34 40.35425 -73.62063 5651 ft 258 kts 22°
2026-05-04 00:34 40.36985 -73.60940 5395 ft 254 kts 22°
2026-05-04 00:35 40.38510 -73.59839 5195 ft 247 kts 22°
2026-05-04 00:35 40.39994 -73.58759 4988 ft 241 kts 22°
2026-05-04 00:35 40.41436 -73.57702 4780 ft 234 kts 22°
2026-05-04 00:35 40.42824 -73.56671 4598 ft 224 kts 22°
2026-05-04 00:36 40.44149 -73.55683 4432 ft 214 kts 22°
2026-05-04 00:36 40.45407 -73.54737 4298 ft 205 kts 22°
2026-05-04 00:36 40.46634 -73.53810 4130 ft 203 kts 22°
2026-05-04 00:36 40.47834 -73.52901 3921 ft 202 kts 22°
2026-05-04 00:37 40.49082 -73.52135 3714 ft 192 kts
2026-05-04 00:37 40.50361 -73.52084 3525 ft 179 kts 349°
2026-05-04 00:37 40.51588 -73.52266 3340 ft 176 kts 342°
2026-05-04 00:37 40.52732 -73.52752 3132 ft 171 kts 332°
2026-05-04 00:38 40.53804 -73.53419 3025 ft 170 kts 321°
2026-05-04 00:38 40.54613 -73.54504 2998 ft 166 kts 300°
2026-05-04 00:38 40.55207 -73.55802 2999 ft 166 kts 299°
2026-05-04 00:38 40.55792 -73.57084 3012 ft 166 kts 299°
2026-05-04 00:39 40.56386 -73.58385 2991 ft 166 kts 299°
2026-05-04 00:39 40.56982 -73.59691 2864 ft 166 kts 299°
2026-05-04 00:39 40.57576 -73.60992 2670 ft 166 kts 298°
2026-05-04 00:39 40.58159 -73.62271 2458 ft 166 kts 298°
2026-05-04 00:40 40.58753 -73.63574 2236 ft 166 kts 298°
2026-05-04 00:40 40.59334 -73.64847 2017 ft 154 kts 299°
2026-05-04 00:40 40.59868 -73.66017 1816 ft 145 kts 298°
2026-05-04 00:40 40.60379 -73.67141 1620 ft 142 kts 298°
2026-05-04 00:41 40.60867 -73.68211 1423 ft 134 kts 298°
2026-05-04 00:41 40.61338 -73.69249 1259 ft 130 kts 299°
2026-05-04 00:41 40.61799 -73.70262 1075 ft 129 kts 298°
2026-05-04 00:41 40.62252 -73.71260 901 ft 131 kts 298°
2026-05-04 00:42 40.62725 -73.72299 735 ft 133 kts 299°
2026-05-04 00:42 40.63202 -73.73348 566 ft 134 kts 300°
2026-05-04 00:42 40.63686 -73.74390 376 ft 134 kts 300°
2026-05-04 00:42 40.64156 -73.75444 220 ft 134 kts 298°
2026-05-04 00:43 40.64631 -73.76498 61 ft 132 kts 300°
2026-05-04 00:43 40.65048 -73.77421 22 ft 103 kts 301°
2026-05-04 00:43 40.65353 -73.78091 22 ft 62 kts 301°
2026-05-04 00:43 40.65497 -73.78401 25 ft 30 kts 302°
2026-05-04 00:44 40.65591 -73.78610 19 ft 21 kts 298°
2026-05-04 00:44 40.65590 -73.78726 22 ft 10 kts 223°
2026-05-04 00:44 40.65532 -73.78740 20 ft 8 kts 156°
2026-05-04 00:44 40.65486 -73.78666 21 ft 15 kts 121°
2026-05-04 00:45 40.65434 -73.78559 26 ft 13 kts 136°
2026-05-04 00:45 40.65359 -73.78507 23 ft 13 kts 156°
2026-05-04 00:45 40.65275 -73.78477 23 ft 12 kts 200°
2026-05-04 00:45 40.65227 -73.78563 25 ft 12 kts 241°
2026-05-04 00:46 40.65195 -73.78637 27 ft 9 kts 241°
2026-05-04 00:46 40.65152 -73.78738 24 ft 14 kts 243°
2026-05-04 00:46 40.65136 -73.78848 24 ft 9 kts 266°
2026-05-04 00:46 40.65115 -73.78905 25 ft 8 kts 210°
2026-05-04 00:47 40.65059 -73.78919 24 ft 8 kts 196°
2026-05-04 00:47 40.65027 -73.78957 24 ft 6 kts 237°
2026-05-04 00:47 40.65005 -73.79009 24 ft 7 kts 240°
2026-05-04 00:47 40.65006 -73.79049 24 ft 3 kts 301°
2026-05-04 00:48 40.65026 -73.79067 24 ft 4 kts 331°
2026-05-04 00:48 40.65042 -73.79079 24 ft 1 kts 331°
2026-05-04 00:48 40.65048 -73.79083 24 ft 0 kts 331°